Wind_Speed
38 37 37 36 36 36 36 35 33 31 32 35 35 33 34 34 35 35 36 37 38 39 40 43 44 46 47 48 50 51 50 50 49 48 47 46 45 44 44 45 45 45 47 48
40 41 41 39 38 38 38 36 36 35 35 38 35 35 35 35 35 36 37 39 41 43 47 49 50 50 49 49 49 48 47 48 48 47 46 45 44 43 43 44 45 46 48 50
40 42 42 42 44 44 42 42 42 41 42 43 40 40 40 40 41 42 44 46 48 49 50 51 50 49 47 47 45 46 47 48 48 47 44 43 42 42 43 45 46 47 50 51
39 41 42 44 45 43 45 48 49 49 50 49 48 47 47 47 48 50 51 51 51 49 48 47 45 44 44 43 45 49 49 49 47 43 41 41 41 42 44 46 48 50 51 50
38 39 39 41 40 40 42 48 50 53 55 55 54 53 52 52 52 51 50 48 46 45 44 42 41 41 42 45 48 50 47 42 39 39 40 40 41 43 45 48 50 50 49 48
33 33 35 39 37 38 38 41 42 43 46 49 51 51 50 49 48 46 45 44 43 41 39 38 38 42 46 49 49 45 37 34 36 38 40 40 42 44 47 49 48 47 46 46
30 33 36 38 37 37 36 37 37 37 38 39 41 42 43 43 43 42 41 40 38 35 33 34 39 46 48 46 40 35 33 34 36 37 39 41 43 45 47 47 46 46 46 46
28 30 34 34 34 33 32 32 32 33 33 33 34 35 36 37 37 36 34 33 31 29 30 35 41 42 39 34 32 31 32 34 35 36 39 41 43 44 44 45 46 47 46 43
28 30 33 33 32 31 29 27 27 27 27 27 27 28 28 28 29 29 28 26 25 27 32 36 35 33 30 28 28 30 30 32 34 37 39 41 42 43 44 45 46 45 41 35
30 31 34 34 34 33 31 29 26 25 24 24 23 23 23 22 23 23 22 23 26 30 32 31 29 26 25 25 25 26 29 32 35 38 39 40 42 43 44 43 41 36 31 29
31 33 36 36 37 35 33 29 25 22 21 20 19 18 17 18 19 20 21 24 26 27 27 25 22 20 19 20 23 27 31 34 36 37 39 40 42 42 40 36 31 27 26 27
25 28 28 28 30 28 24 20 18 17 17 16 14 12 11 12 13 15 18 20 21 20 17 15 15 15 17 21 25 29 31 34 36 38 40 40 39 36 32 27 23 23 24 23
14 15 15 15 14 13 13 14 14 15 14 13 12 11 9 8 10 13 15 16 13 11 10 11 12 16 20 24 27 29 32 35 38 39 39 36 33 29 24 21 20 21 21 19
8 7 5 4 5 8 10 11 11 11 11 11 12 11 9 9 10 11 10 8 7 7 7 10 15 19 22 25 28 31 34 36 37 36 33 28 24 21 18 18 19 19 18 14
2 4 5 6 7 9 11 12 12 11 10 8 7 6 5 4 4 5 5 4 3 5 9 14 18 21 24 27 30 33 35 35 33 28 24 21 18 18 18 17 18 17 16 12
9 11 10 10 11 13 14 14 14 14 12 10 8 6 4 3 3 2 1 2 4 8 13 16 20 23 26 29 31 32 31 28 24 21 19 19 18 18 18 17 15 14 13 11
11 12 13 15 15 14 13 12 13 12 11 8 6 4 3 2 2 5 5 6 8 12 15 19 22 25 27 28 28 27 25 22 20 19 20 20 19 19 18 16 13 9 9 10
11 11 12 13 14 13 11 10 10 9 8 7 5 3 4 6 7 8 7 9 11 14 17 20 23 25 26 26 24 23 21 20 19 20 20 20 20 19 18 16 12 8 7 9
11 11 11 11 11 10 9 8 8 8 7 6 5 6 7 9 9 9 10 11 13 15 18 21 23 25 25 24 22 20 19 19 20 20 20 20 20 19 18 16 13 10 8 9
13 13 12 10 8 8 7 7 7 7 6 6 7 8 10 11 10 10 11 12 13 16 19 21 23 25 25 24 22 20 19 20 20 21 21 21 20 18 17 16 15 13 13 13
16 13 10 8 6 6 6 6 6 6 6 7 9 11 12 12 11 10 11 12 14 17 19 20 23 26 28 28 25 23 21 21 21 21 22 21 20 19 17 16 16 16 16 16
18 15 10 7 6 6 6 7 7 7 7 9 11 13 14 13 12 11 12 13 16 18 19 20 25 28 30 31 29 27 26 25 24 24 23 23 22 21 19 18 17 18 18 19
20 17 13 10 9 9 9 9 9 9 9 11 14 16 15 13 12 12 12 14 17 18 19 23 27 30 32 34 33 32 30 29 29 28 28 27 26 24 22 21 20 20 20 20
18 17 15 13 12 11 12 12 11 11 11 13 17 17 15 13 12 12 13 15 17 19 21 25 28 31 34 35 35 35 34 33 33 33 33 33 32 30 28 26 24 22 21 21
18 17 16 15 14 13 13 13 13 12 12 15 18 17 15 12 12 12 13 15 16 18 21 25 28 32 35 36 36 37 37 36 35 35 35 36 36 36 35 33 30 28 25 23
20 19 17 16 15 14 14 13 13 13 13 16 19 18 15 13 12 12 13 14 15 17 20 23 27 31 34 36 37 37 38 38 37 37 36 36 37 38 39 38 37 36 33 31
20 20 18 17 16 15 13 13 12 13 15 18 20 20 16 14 13 12 13 13 14 16 19 22 26 29 32 34 36 38 39 40 40 40 39 38 38 38 39 40 40 40 39 38
Wind_Direction
250 250 254 256 256 255 255 257 259 261 265 269 271 272 272 272 273 276 280 284 288 289 288 289 293 296 298 300 302 304 303 303 303 303 300 298 297 296 298 298 299 301 302 302
251 254 255 255 258 261 262 264 264 265 268 268 272 273 273 275 276 279 283 287 291 292 290 290 292 295 299 301 302 300 298 299 300 299 298 297 297 298 300 302 304 306 306 307
250 251 254 254 254 256 260 263 264 265 266 272 275 275 277 279 282 284 286 288 291 292 290 290 294 298 299 301 298 290 288 292 295 295 295 297 299 301 304 306 308 310 312 312
252 253 253 253 256 257 258 260 263 264 267 270 272 273 276 278 280 282 284 287 289 289 290 292 295 296 297 296 288 280 280 287 291 294 297 300 302 305 308 311 313 314 314 313
253 256 258 259 260 260 259 260 263 263 265 267 269 272 274 276 278 280 282 285 286 288 288 289 289 288 286 284 280 275 279 287 294 298 299 302 306 309 312 313 314 313 313 314
254 257 262 263 265 265 265 264 265 265 266 267 269 270 273 276 278 279 280 281 283 284 284 284 281 276 275 276 277 280 287 295 299 299 302 306 309 311 313 313 313 313 314 316
258 262 265 268 270 270 268 268 269 268 267 267 267 269 271 273 274 276 277 278 279 279 277 276 273 272 272 274 282 292 299 300 299 301 305 309 311 312 312 312 313 314 316 317
260 262 265 268 268 269 270 271 271 270 269 267 266 266 267 268 270 271 273 274 275 274 271 269 269 274 280 286 293 297 298 298 301 305 309 311 312 312 312 314 315 317 317 317
262 264 267 269 270 271 271 271 271 270 268 265 263 263 264 265 268 269 272 273 271 268 268 270 277 284 289 293 296 297 298 302 307 310 311 312 312 313 315 316 317 317 318 317
269 270 270 269 269 269 270 269 269 267 264 261 261 261 261 263 263 264 265 262 261 264 270 275 279 283 288 293 296 300 305 309 311 312 312 313 315 316 317 318 318 319 320 322
273 271 270 269 268 268 267 266 263 259 256 254 255 254 257 261 261 258 257 259 266 272 276 278 282 288 294 300 306 310 313 313 313 313 315 317 318 319 320 321 323 324 325 327
272 272 272 271 268 263 256 249 246 244 242 240 237 240 250 257 256 255 259 266 270 274 279 286 293 300 307 314 317 317 317 316 316 317 318 319 321 322 325 327 329 330 329 330
272 272 276 274 264 241 223 224 227 226 223 217 216 228 243 255 259 264 268 269 274 282 290 297 309 318 323 325 323 322 321 321 321 321 322 324 326 329 332 335 336 335 334 337
275 268 260 238 202 195 199 201 200 198 198 204 221 234 254 266 269 269 271 278 288 297 311 325 330 332 332 331 329 328 327 326 326 327 330 333 337 340 341 341 342 344 345 347
110 128 132 135 146 157 158 155 150 149 156 168 184 204 223 233 245 263 276 286 315 342 344 343 342 341 340 338 336 334 333 333 335 339 344 348 350 349 348 346 348 352 355 0
114 116 111 111 121 130 136 138 135 133 138 146 155 162 177 214 247 251 180 87 33 7 359 355 352 349 346 343 341 340 341 345 352 358 1 360 357 354 352 351 352 357 6 14
132 124 113 104 100 103 115 127 134 138 145 152 158 167 187 196 144 124 107 71 32 15 7 1 356 353 350 348 347 348 353 1 7 9 6 3 359 357 356 355 357 5 18 25
145 132 114 96 86 84 94 113 129 140 149 151 149 136 122 125 126 115 87 51 30 17 8 3 1 358 355 353 353 356 3 9 10 8 5 4 3 3 3 5 12 23 30 31
159 143 125 107 93 84 90 109 127 136 139 136 123 116 124 128 120 98 68 46 29 17 12 10 6 3 2 2 0 3 10 12 11 9 8 8 9 12 15 22 32 43 42 40
175 162 148 131 108 91 90 109 127 133 132 124 117 120 126 123 109 86 63 45 30 23 20 15 10 10 13 14 12 12 15 16 16 16 16 16 18 23 29 38 45 51 54 60
192 187 176 160 138 117 110 122 136 140 136 129 126 129 130 124 105 82 63 47 37 31 26 19 18 21 24 25 26 28 27 25 23 23 24 25 29 35 41 48 53 59 64 68
204 206 204 195 173 155 147 148 148 146 142 134 133 137 134 121 99 80 66 54 46 40 34 30 31 32 33 35 37 38 38 36 35 35 36 37 39 44 49 55 59 64 69 73
213 217 218 210 189 173 168 163 154 147 140 136 138 140 134 119 101 86 72 61 54 49 46 43 42 41 41 42 44 44 45 45 46 46 46 47 48 51 56 60 64 67 71 75
213 217 217 208 192 180 176 167 156 149 142 138 141 141 134 120 106 94 80 69 62 57 56 54 51 48 48 48 48 48 49 50 52 53 54 55 55 57 59 63 66 70 72 75
207 210 210 202 192 182 175 169 161 153 145 142 144 143 137 127 116 102 87 76 69 65 64 62 59 56 54 54 53 53 52 53 55 57 59 60 60 60 61 63 66 69 72 74
204 205 201 195 189 184 176 170 165 158 152 152 153 151 146 137 125 109 94 84 76 73 72 70 67 63 61 60 59 58 57 57 58 59 61 62 63 63 64 65 66 67 69 70
197 196 194 189 187 186 181 174 172 169 165 165 164 159 153 145 133 118 104 93 85 80 79 76 72 69 67 66 65 64 63 63 62 63 64 65 65 66 66 67 67 68 68 68
Height
5739 5742 5744 5745 5746 5748 5750 5751 5753 5753 5752 5751 5751 5752 5753 5753 5754 5753 5753 5752 5750 5748 5745 5742 5738 5735 5731 5726 5722 5717 5712 5707 5702 5696 5691 5685 5680 5674 5668 5662 5656 5649 5642 5635
5729 5732 5734 5736 5738 5739 5740 5742 5742 5743 5744 5741 5743 5743 5743 5744 5744 5744 5743 5742 5740 5737 5734 5730 5727 5723 5719 5714 5709 5704 5700 5695 5690 5685 5680 5674 5669 5663 5657 5651 5644 5636 5629 5622
5720 5721 5723 5727 5728 5729 5731 5731 5732 5733 5733 5731 5733 5734 5734 5734 5734 5733 5732 5731 5729 5726 5722 5718 5714 5710 5707 5702 5697 5693 5688 5683 5679 5674 5669 5664 5658 5652 5646 5639 5631 5624 5616 5608
5709 5711 5713 5716 5715 5720 5722 5720 5720 5721 5721 5721 5722 5723 5724 5723 5723 5722 5720 5719 5716 5713 5709 5706 5703 5699 5695 5691 5686 5682 5677 5672 5667 5663 5658 5653 5647 5640 5634 5626 5619 5611 5604 5595
5699 5700 5702 5703 5705 5708 5710 5708 5709 5709 5710 5709 5710 5711 5711 5710 5710 5709 5708 5706 5704 5701 5698 5696 5693 5689 5685 5681 5676 5671 5665 5660 5656 5653 5648 5642 5635 5628 5621 5614 5607 5600 5592 5585
5689 5691 5692 5692 5695 5696 5698 5696 5698 5697 5697 5698 5698 5699 5698 5697 5697 5697 5696 5695 5693 5691 5689 5686 5684 5680 5676 5671 5666 5660 5654 5651 5647 5643 5637 5631 5624 5617 5610 5603 5597 5589 5583 5576
5680 5681 5681 5683 5684 5685 5687 5686 5686 5685 5686 5687 5687 5687 5687 5686 5686 5686 5686 5684 5683 5682 5681 5679 5676 5672 5667 5661 5656 5651 5647 5643 5639 5634 5628 5621 5614 5606 5600 5593 5587 5580 5573 5567
5670 5672 5673 5673 5673 5674 5674 5674 5674 5674 5674 5675 5675 5675 5676 5676 5676 5676 5676 5675 5675 5674 5673 5670 5666 5661 5656 5651 5647 5644 5640 5636 5631 5625 5618 5611 5604 5597 5590 5583 5576 5569 5563 5557
5662 5664 5662 5662 5662 5663 5664 5664 5664 5664 5665 5665 5666 5666 5667 5668 5668 5667 5667 5667 5667 5666 5664 5661 5658 5654 5650 5645 5642 5638 5634 5629 5623 5616 5609 5602 5595 5588 5581 5574 5567 5561 5554 5548
5652 5652 5651 5651 5652 5653 5654 5655 5656 5657 5657 5658 5658 5659 5660 5661 5661 5661 5661 5661 5661 5659 5657 5654 5651 5648 5644 5640 5637 5633 5628 5621 5614 5608 5601 5594 5587 5580 5572 5565 5558 5552 5546 5540
5642 5641 5640 5641 5641 5642 5644 5646 5648 5649 5650 5652 5653 5654 5655 5655 5655 5656 5656 5655 5655 5653 5651 5649 5646 5642 5639 5636 5632 5626 5620 5613 5607 5600 5593 5586 5578 5571 5564 5557 5551 5545 5540 5535
5633 5631 5630 5630 5629 5631 5634 5638 5640 5642 5644 5646 5648 5650 5651 5651 5652 5652 5651 5651 5650 5648 5646 5644 5642 5639 5635 5631 5625 5619 5613 5607 5600 5592 5585 5577 5571 5564 5556 5551 5545 5540 5536 5531
5626 5624 5623 5622 5622 5624 5628 5632 5634 5637 5640 5642 5645 5647 5648 5648 5649 5648 5648 5647 5646 5645 5643 5642 5639 5635 5630 5625 5620 5614 5607 5600 5592 5584 5577 5569 5563 5556 5551 5546 5542 5537 5533 5529
5622 5620 5620 5619 5620 5622 5625 5628 5631 5634 5637 5640 5642 5645 5646 5646 5646 5646 5646 5645 5644 5643 5641 5639 5635 5631 5626 5621 5615 5609 5601 5593 5585 5577 5569 5563 5557 5552 5548 5543 5539 5535 5531 5527
5620 5620 5620 5620 5621 5622 5625 5628 5631 5634 5637 5640 5642 5644 5645 5645 5645 5645 5645 5644 5643 5642 5640 5637 5633 5629 5623 5617 5611 5603 5595 5587 5579 5572 5565 5560 5555 5551 5546 5542 5538 5534 5530 5527
5622 5623 5623 5624 5625 5626 5628 5631 5633 5636 5638 5641 5642 5644 5644 5645 5645 5645 5644 5644 5643 5642 5639 5635 5631 5626 5620 5614 5607 5599 5591 5583 5576 5570 5565 5559 5554 5550 5545 5541 5537 5533 5530 5528
5627 5627 5628 5629 5630 5631 5633 5634 5636 5638 5640 5642 5643 5644 5645 5645 5645 5645 5645 5645 5644 5641 5638 5635 5630 5624 5618 5611 5604 5596 5589 5582 5576 5570 5565 5559 5554 5549 5544 5540 5536 5534 5531 5529
5630 5631 5632 5633 5634 5635 5636 5638 5639 5641 5642 5643 5645 5645 5646 5646 5646 5646 5646 5646 5644 5642 5639 5634 5629 5623 5616 5609 5602 5595 5588 5582 5576 5571 5565 5560 5554 5549 5544 5540 5536 5534 5532 5530
5632 5634 5635 5637 5638 5638 5639 5640 5641 5643 5644 5645 5646 5646 5646 5647 5648 5648 5648 5647 5645 5643 5639 5634 5629 5623 5616 5608 5601 5594 5588 5582 5577 5572 5566 5560 5555 5550 5545 5541 5538 5535 5533 5532
5633 5635 5637 5639 5640 5640 5641 5642 5643 5644 5645 5646 5646 5647 5648 5649 5650 5650 5650 5649 5647 5644 5639 5635 5630 5624 5617 5609 5601 5595 5589 5584 5578 5573 5568 5562 5557 5552 5548 5544 5541 5538 5536 5534
5633 5635 5638 5639 5641 5642 5642 5643 5644 5645 5646 5647 5648 5648 5649 5651 5652 5652 5652 5651 5649 5645 5641 5637 5632 5625 5618 5610 5602 5596 5591 5585 5580 5575 5570 5565 5560 5555 5551 5548 5545 5542 5540 5538
5632 5635 5637 5639 5641 5642 5643 5644 5646 5647 5647 5648 5648 5650 5651 5653 5654 5655 5655 5653 5650 5648 5645 5640 5635 5628 5621 5613 5606 5599 5594 5589 5584 5579 5574 5568 5563 5559 5555 5552 5549 5547 5545 5543
5631 5633 5636 5638 5640 5642 5644 5645 5646 5647 5648 5648 5650 5652 5654 5655 5656 5657 5657 5656 5653 5651 5648 5643 5638 5631 5625 5618 5611 5605 5600 5594 5589 5584 5579 5573 5569 5564 5560 5557 5555 5552 5551 5549
5628 5631 5634 5636 5639 5641 5643 5644 5646 5647 5648 5649 5651 5653 5656 5658 5659 5660 5659 5658 5657 5655 5652 5647 5642 5637 5631 5625 5619 5613 5607 5602 5597 5592 5586 5581 5576 5572 5567 5564 5561 5559 5557 5556
5626 5629 5632 5635 5637 5640 5642 5644 5645 5647 5648 5650 5652 5655 5658 5660 5661 5662 5662 5661 5660 5659 5656 5652 5648 5644 5638 5632 5627 5622 5616 5611 5606 5601 5596 5591 5586 5581 5577 5573 5569 5567 5565 5563
5624 5628 5631 5633 5636 5638 5641 5643 5645 5646 5648 5651 5654 5657 5660 5662 5663 5664 5664 5664 5664 5663 5660 5657 5654 5650 5646 5641 5636 5631 5626 5621 5616 5611 5607 5602 5598 5593 5589 5584 5580 5577 5574 5572
5622 5625 5629 5632 5635 5637 5639 5642 5644 5646 5649 5652 5655 5659 5662 5664 5665 5666 5667 5667 5667 5667 5665 5663 5660 5656 5653 5649 5645 5641 5637 5632 5628 5623 5618 5613 5609 5605 5601 5597 5593 5589 5586 5583